Regional Weather Roundup
Issued by NWS

Home | Current Version | Previous Version | Text Only | Print | Product List | Glossary Off
Versions: 1 2 3 4 5 6 7 8 9 10 11 12 13 14 15 16 17 18 19 20 21 22 23 24 25 26 27

000
ASUS45 KCYS 260910
RWRWY

WYOMING REGIONAL WEATHER ROUNDUP
NATIONAL WEATHER SERVICE CHEYENNE WY
300 AM MDT SUN MAR 26 2017

NOTE:  "FAIR" INDICATES FEW OR NO CLOUDS BELOW 12,000 FEET
WITH NO SIGNIFICANT WEATHER AND/OR OBSTRUCTIONS TO VISIBILITY.

WYZ001-261000-
YELLOWSTONE NATIONAL PARK

CITY           SKY/WX    TMP DP  RH WIND       PRES   REMARKS
LK YELLOWSTONE   N/A     23  21  92 CALM      29.98F
W YELLOWSTONE  NOT AVBL

$$
WYZ002>013-054>058-071-098>099-261000-
NORTHERN WYOMING

CITY           SKY/WX    TMP DP  RH WIND       PRES   REMARKS
JACKSON        CLOUDY    27  27 100 CALM      29.99S
CODY           FAIR      34  28  79 CALM      29.94F
GREYBULL       MOCLDY    40  35  83 CALM      29.91S
WORLAND        CLOUDY    41  38  89 W8        29.91F
SHERIDAN       FAIR      37  35  92 SE3       29.92F
BUFFALO        LGT RAIN  37  33  85 NW7       29.93S WCI  32
GILLETTE       CLOUDY    40  37  89 N13       29.90S WCI  32
HULETT         CLOUDY    41  36  81 N7        29.91R
NEWCASTLE      FAIR      43  32  65 NW9       29.84S

$$
WYZ014>020-022>026-101>103-261000-
CENTRAL WYOMING

CITY           SKY/WX    TMP DP  RH WIND       PRES   REMARKS
BIG PINEY      FAIR      25  21  85 N9        29.97R WCI  15
PINEDALE       FAIR      28  25  86 NW13      29.95S WCI  18
DUBOIS         FAIR      30  21  69 NW7       29.95R WCI  23
LANDER         CLOUDY    37  34  89 N6        29.92S WCI  32
RIVERTON       LGT RAIN  37  34  89 N10       29.93R WCI  30
CASPER         LGT RAIN  36  35  96 N10       29.89S WCI  28
DOUGLAS        CLOUDY    41  33  73 NW13      29.87F

$$
WYZ021-027>030-104>119-261000-
SOUTHERN WYOMING

CITY           SKY/WX    TMP DP  RH WIND       PRES   REMARKS
EVANSTON       FAIR      26  23  88 SW7       30.01  WCI  18
KEMMERER         N/A     28  25  86 NW9       29.99S WCI  20
FORT BRIDGER   PTSUNNY   31  31 100 W6        30.03S WCI  25
ROCK SPRINGS   CLOUDY    35  31  85 W7        29.96S WCI  29
DIXON          LGT RAIN  39  36  89 W3        29.94F
RAWLINS        CLOUDY    37  33  85 W10       29.88F WCI  30
SARATOGA       CLOUDY    37  37 100 W8G17     29.89F WCI  31
LARAMIE        LGT RAIN  35  33  92 NW5       29.86F WCI  31
CHEYENNE       FAIR      43  34  70 NW6       29.83F
TORRINGTON     FAIR      43  31  62 NE7       29.79S
PINE BLUFFS    CLOUDY    43  34  70 SW3       29.86R

$$




USA.gov is the U.S. government's official web portal to all federal, state and local government web resources and services.